When you browse on this site, cookies collect data to enhance your experience and personalize the content and advertising you see.
Visit our Privacy Policy to learn more. By continuing to use the site, you agree to this use of cookies and data.
  • In Hungary
  • List of Countries
  • For 7 days
  • Water Temperature
  • Satellite Maps
  • Weather Map
  • News
  • Weather Widgets
  • user-avatar
    Login

    Hourly Weather Kaiyuan

    Today, 21 February, Thursday

    Time Temperature Precipitation Wind Pressure Humidity
    00:00 +16°C° 0 mm 2 mps 665 mmHg 70%
    01:00 +16°C° 0 mm 2 mps 665 mmHg 74%
    02:00 +15°C° 0 mm 2 mps 665 mmHg 75%
    03:00 +15°C° 0 mm 2 mps 665 mmHg 75%
    04:00 +15°C° 0 mm 2 mps 665 mmHg 76%
    05:00 +14°C° 0 mm 2 mps 665 mmHg 77%
    06:00 +14°C° 0 mm 2 mps 665 mmHg 77%
    07:00 +14°C° 0 mm 2 mps 666 mmHg 78%
    08:00 +17°C° 0 mm 3 mps 666 mmHg 64%
    09:00 +20°C° 0 mm 3 mps 667 mmHg 50%
    10:00 +23°C° 0 mm 4 mps 668 mmHg 36%
    11:00 +25°C° 0 mm 4 mps 667 mmHg 32%
    12:00 +26°C° 0 mm 4 mps 667 mmHg 29%
    13:00 +27°C° 0 mm 4 mps 667 mmHg 27%
    14:00 +28°C° 0 mm 5 mps 666 mmHg 27%
    15:00 +28°C° 0 mm 5 mps 666 mmHg 26%
    16:00 +28°C° 0 mm 5 mps 665 mmHg 26%
    17:00 +26°C° 0 mm 4 mps 665 mmHg 32%
    18:00 +22°C° 0 mm 3 mps 665 mmHg 38%
    19:00 +20°C° 0 mm 2 mps 665 mmHg 44%
    20:00 +19°C° 0 mm 2 mps 665 mmHg 47%
    21:00 +19°C° 0 mm 2 mps 665 mmHg 51%
    22:00 +18°C° 0 mm 2 mps 666 mmHg 54%
    23:00 +17°C° 0 mm 2 mps 665 mmHg 56%

    Tomorrow, 22 February, Friday

    Time Temperature Precipitation Wind Pressure Humidity
    00:00 +17°C° 0 mm 2 mps 665 mmHg 58%
    01:00 +16°C° 0 mm 2 mps 665 mmHg 60%
    02:00 +16°C° 0 mm 2 mps 665 mmHg 61%
    03:00 +15°C° 0 mm 1 mps 664 mmHg 62%
    04:00 +15°C° 0 mm 1 mps 664 mmHg 63%
    05:00 +15°C° 0 mm 1 mps 664 mmHg 64%
    06:00 +14°C° 0 mm 1 mps 664 mmHg 65%
    07:00 +14°C° 0 mm 1 mps 664 mmHg 66%
    08:00 +17°C° 0 mm 2 mps 665 mmHg 56%
    09:00 +20°C° 0 mm 3 mps 665 mmHg 47%
    10:00 +23°C° 0 mm 4 mps 666 mmHg 37%
    11:00 +26°C° 0 mm 5 mps 665 mmHg 34%
    12:00 +27°C° 0 mm 5 mps 665 mmHg 32%
    13:00 +28°C° 0 mm 6 mps 664 mmHg 29%
    14:00 +28°C° 0 mm 6 mps 664 mmHg 29%
    15:00 +28°C° 0 mm 6 mps 663 mmHg 28%
    16:00 +28°C° 0 mm 7 mps 662 mmHg 28%
    17:00 +26°C° 0 mm 5 mps 662 mmHg 34%
    18:00 +23°C° 0 mm 4 mps 662 mmHg 41%
    19:00 +21°C° 0 mm 3 mps 662 mmHg 47%
    20:00 +20°C° 0 mm 3 mps 662 mmHg 51%
    21:00 +19°C° 0 mm 3 mps 663 mmHg 54%
    22:00 +18°C° 0 mm 2 mps 663 mmHg 58%
    23:00 +18°C° 0 mm 2 mps 663 mmHg 63%

    Day after tomorrow, 23 February, Saturday

    Time Temperature Precipitation Wind Pressure Humidity
    00:00 +17°C° 0 mm 2 mps 663 mmHg 69%
    01:00 +16°C° 0 mm 2 mps 662 mmHg 74%
    02:00 +16°C° 0 mm 2 mps 662 mmHg 78%
    03:00 +15°C° 0 mm 2 mps 662 mmHg 81%
    04:00 +15°C° 0 mm 2 mps 661 mmHg 85%
    05:00 +14°C° 0 mm 2 mps 661 mmHg 86%
    06:00 +14°C° 0 mm 2 mps 662 mmHg 86%
    07:00 +14°C° 0 mm 2 mps 662 mmHg 87%
    08:00 +17°C° 0 mm 2 mps 663 mmHg 71%
    09:00 +20°C° 0 mm 3 mps 664 mmHg 56%
    10:00 +24°C° 0 mm 3 mps 664 mmHg 40%
    11:00 +26°C° 0 mm 4 mps 664 mmHg 35%
    12:00 +28°C° 0 mm 5 mps 663 mmHg 29%
    13:00 +29°C° 0 mm 6 mps 663 mmHg 24%
    14:00 +29°C° 0 mm 7 mps 662 mmHg 24%
    15:00 +29°C° 0 mm 7 mps 662 mmHg 24%
    16:00 +29°C° 0 mm 7 mps 661 mmHg 24%
    17:00 +27°C° 0 mm 6 mps 661 mmHg 29%
    18:00 +25°C° 0 mm 4 mps 661 mmHg 34%
    19:00 +21°C° 0 mm 3 mps 662 mmHg 39%
    20:00 +21°C° 0 mm 3 mps 662 mmHg 43%
    21:00 +20°C° 0 mm 3 mps 662 mmHg 47%
    22:00 +19°C° 0 mm 3 mps 663 mmHg 51%
    23:00 +18°C° 0 mm 3 mps 663 mmHg 54%

    24 February, Sunday

    Time Temperature Precipitation Wind Pressure Humidity
    00:00 +17°C° 0 mm 2 mps 663 mmHg 58%
    01:00 +17°C° 0 mm 2 mps 662 mmHg 62%
    02:00 +16°C° 0 mm 2 mps 662 mmHg 63%
    03:00 +16°C° 0 mm 2 mps 662 mmHg 63%
    04:00 +15°C° 0 mm 2 mps 662 mmHg 64%
    05:00 +15°C° 0 mm 2 mps 662 mmHg 63%
    06:00 +15°C° 0 mm 2 mps 662 mmHg 61%
    07:00 +15°C° 0 mm 2 mps 663 mmHg 60%
    08:00 +18°C° 0 mm 3 mps 664 mmHg 49%
    09:00 +22°C° 0 mm 4 mps 665 mmHg 38%
    10:00 +26°C° 0 mm 5 mps 666 mmHg 27%
    11:00 +27°C° 0 mm 5 mps 665 mmHg 24%
    12:00 +29°C° 0 mm 6 mps 664 mmHg 22%
    13:00 +30°C° 0 mm 7 mps 664 mmHg 20%
    14:00 +30°C° 0 mm 7 mps 663 mmHg 20%
    15:00 +30°C° 0 mm 7 mps 663 mmHg 20%
    16:00 +30°C° 0 mm 7 mps 662 mmHg 20%
    17:00 +28°C° 0 mm 6 mps 662 mmHg 25%
    18:00 +25°C° 0 mm 4 mps 662 mmHg 30%
    19:00 +22°C° 0 mm 3 mps 662 mmHg 35%
    20:00 +21°C° 0 mm 3 mps 663 mmHg 38%
    21:00 +20°C° 0 mm 2 mps 663 mmHg 42%
    22:00 +20°C° 0 mm 2 mps 664 mmHg 45%
    23:00 +19°C° 0 mm 2 mps 664 mmHg 48%

    25 February, Monday

    Time Temperature Precipitation Wind Pressure Humidity
    00:00 +18°C° 0 mm 2 mps 663 mmHg 52%
    01:00 +18°C° 0 mm 2 mps 663 mmHg 56%
    02:00 +17°C° 0 mm 2 mps 663 mmHg 57%
    03:00 +17°C° 0 mm 2 mps 662 mmHg 59%
    04:00 +16°C° 0 mm 2 mps 662 mmHg 61%
    05:00 +16°C° 0 mm 2 mps 663 mmHg 61%
    06:00 +16°C° 0 mm 2 mps 663 mmHg 62%
    07:00 +16°C° 0 mm 2 mps 664 mmHg 62%
    08:00 +19°C° 0 mm 2 mps 665 mmHg 51%
    09:00 +22°C° 0 mm 3 mps 666 mmHg 41%
    10:00 +27°C° 0 mm 3 mps 667 mmHg 30%
    11:00 +28°C° 0 mm 4 mps 666 mmHg 28%
    12:00 +29°C° 0 mm 6 mps 665 mmHg 25%
    13:00 +32°C° 0 mm 7 mps 664 mmHg 22%
    14:00 +32°C° 0 mm 7 mps 664 mmHg 22%
    15:00 +32°C° 0 mm 7 mps 663 mmHg 22%
    16:00 +32°C° 0 mm 7 mps 663 mmHg 22%
    17:00 +29°C° 0 mm 6 mps 663 mmHg 27%
    18:00 +27°C° 0 mm 4 mps 663 mmHg 32%
    19:00 +25°C° 0 mm 3 mps 663 mmHg 37%
    20:00 +24°C° 0.1 mm 3 mps 664 mmHg 40%
    21:00 +23°C° 0.1 mm 2 mps 664 mmHg 44%
    22:00 +21°C° 0.1 mm 2 mps 665 mmHg 47%
    23:00 +20°C° 0 mm 2 mps 665 mmHg 51%

    26 February, Tuesday

    Time Temperature Precipitation Wind Pressure Humidity
    00:00 +19°C° 0 mm 2 mps 664 mmHg 56%
    01:00 +19°C° 0 mm 2 mps 664 mmHg 60%
    02:00 +18°C° 0 mm 2 mps 664 mmHg 63%
    03:00 +19°C° 0 mm 1 mps 664 mmHg 66%
    04:00 +18°C° 0 mm 1 mps 663 mmHg 69%
    05:00 +18°C° 0 mm 1 mps 664 mmHg 71%
    06:00 +17°C° 0 mm 2 mps 664 mmHg 73%
    07:00 +16°C° 0 mm 2 mps 665 mmHg 76%
    08:00 +19°C° 0 mm 2 mps 665 mmHg 63%
    09:00 +23°C° 0 mm 2 mps 666 mmHg 51%
    10:00 +26°C° 0 mm 3 mps 667 mmHg 38%
    11:00 +27°C° 0 mm 4 mps 666 mmHg 35%
    12:00 +29°C° 0 mm 5 mps 665 mmHg 31%
    13:00 +30°C° 0 mm 7 mps 665 mmHg 27%
    14:00 +30°C° 0 mm 7 mps 664 mmHg 27%
    15:00 +30°C° 0 mm 7 mps 664 mmHg 27%
    16:00 +30°C° 0 mm 7 mps 664 mmHg 26%
    17:00 +28°C° 0 mm 6 mps 664 mmHg 32%
    18:00 +26°C° 0 mm 4 mps 664 mmHg 38%
    19:00 +24°C° 0 mm 3 mps 664 mmHg 44%
    20:00 +22°C° 0 mm 3 mps 664 mmHg 48%
    21:00 +21°C° 0 mm 2 mps 665 mmHg 53%
    22:00 +20°C° 0 mm 2 mps 665 mmHg 57%
    23:00 +20°C° 0 mm 2 mps 665 mmHg 61%
    Show more